map of SLZ home
Great Circle Mapper logo
SLZ - Airport
Location
City:  São Luis, Maranhão, Brazil
Name:Marechal Cunha Machado International Airport
ICAO:SBSL
IATA:SLZ

Details
Type:Airport (Aerodrome, Airfield)
Use:Public/Civil, International (customs port of entry)
Latitude:2°35'07"S (-2.585360)
Longitude:44°14'03"W (-44.234138)
Datum:WGS 1984
Elevation:178 ft (54 m)
Variation:20.92°W (WMM2015 magnetic declination)
0.00° annual change
Runways:2
Longest:7850 × 148 ft (2393 × 45 m), paved

Time
Time Zone:UTC-3
Local Time:

Weather
METAR:SBSL 241700Z 06013KT 9999 BKN020 32/20 Q1012
TAF:SBSL 241000Z 2412/2512 08015KT 9999 SCT020 TX32/2417Z TN25/2506Z
BECMG 2416/2418 04015KT
BECMG 2422/2424 06008KT CAVOK
RMK PEH

Related Locations
Nearby:
Farthest:FOO: 12181 mi / 19604 km
Numfoor [Kornasoren], Irian Jaya Island, PP, ID

Find:

   beyond  
but within

Other Information
Maps:
NOTAMs:
Links:
Sources:

  
flag of Brazil
flag of Maranhão
  

Sectional Chart

Flight Planning
at skyvector.com

Satellite Image

Google Maps Satellite view

 

Copyright © 2004-2016 Karl L. Swartz. All rights reserved.
The Great Circle Mapper name and logo are trademarks of the Great Circle Mapper.
All other trademarks mentioned herein belong to their respective owners.
Please see credits for attibutions and further copyright information.

  Follow gcmap on Facebook Follow gcmap on Twitter Follow gcmap on Google+ GCmap on LinkedIn

hCard Microformat

Geo Microformat